Карточка аэропорта USRR

Внимание!
Информация на этой странице в стадии наполнения.
Если вы не увидели какой-то информации, или заметили неточность - пожалуйста сообщите нам!
Спасибо!
Команда RU-STAFF
Название аэропортаСургут
Название аэропорта (англ.)Surgut
Превышение196 ft. (59.7 m.)
Координаты61°20.502', 73°24.168'
Высота перехода700m
Эшелон переходаQFE>=742mm:FL040; QFE<=742mm:FL050
Коды ответчика5570-5577
Зона ОрВДТюмень РПИ (USTV)
Данные METARUSRR 232200Z VRB01MPS CAVOK M02/M03 Q1019 R07/CLRD60 NOSIG RMK QFE759
Проноз погоды (TAF)USRR 231940Z 2321/2421 04003G08MPS 9999 FEW011 BKN016CB TEMPO 2321/2403 VRB01MPS 5000 -SHSN BR SCT004 BKN016CB TEMPO 2403/2415 0800 +SHSN BKN005 BKN016CB BECMG 2403/2405 32005G13MPS
NOTAMshow/hide NOTAM
AWOS   TABLE

Информация о ВПП

ВПП Длина ВПП (м.) Покрытие Курс ВПП Частота ILS
072780Асфальтобетон73110.5
252780Асфальтобетон253109.1

Диспетчерские позиции

Позывной Наименование органа УВД Частота
USRR_R_APPСургут - Круг120.300
USRR_TWRСургут-Вышка120.800
USRR_APPСургут-Подход129.300



Спутниковое изображение